Weather observations for the past three days for
Aurora Municipal Airport
Imperial (Metric)
Date Time (cdt) Wind (mph) Vis. (mi.) Weather Sky Cond. Temperature (ºF) Relative Humidity Wind Chill (°F) Heat Index (°F) Pressure Precipitation (in)
Air Dwpt 6 hour altimeter (in) sea level (mb) 1 hr 3 hr 6 hr
Max. Min.
12 22:52 SW 9 10.00 Fair CLR 80.1 61 52% 81 29.85 1010.1
12 21:52 S 8 10.00 Fair CLR 79 60.1 52% 80 29.83 1009.4
12 20:52 S 7 10.00 Overcast BKN090 OVC120 81 59 47% 81 29.82 1009.2
12 19:52 S 7 10.00 Mostly Cloudy BKN095 BKN110 84 60.1 44% 84 29.84 1009.7
12 18:52 S 5 10.00 Partly Cloudy SCT090 87.1 61 91 86 42% 87 29.84 1010.1
12 17:52 SW 6 10.00 Fair CLR 87.1 60.1 40% 87 29.85 1010.2
12 16:52 SW 8 10.00 Fair CLR 89.1 57.9 35% 88 29.86 1010.7
12 15:52 SW 10 10.00 A Few Clouds FEW100 90 55 31% 88 29.87 1010.9
12 14:52 W 12 G 20 10.00 Partly Cloudy SCT100 91 55.9 31% 89 29.89 1011.5
12 13:52 S 13 10.00 Fair CLR 89.1 57 34% 88 29.9 1011.8
12 12:52 S 7 10.00 Fair CLR 88 55.9 88 66.9 34% 86 29.91 1012.3
12 11:52 SW 7 10.00 Fair CLR 84.9 63 48% 86 29.92 1012.7
12 10:52 S 8 10.00 Fair CLR 80.1 62.1 54% 81 29.93 1013.0
12 09:52 S 7 9.00 Fair CLR 78.1 62.1 58% 80 29.92 1012.9
12 08:52 SW 9 9.00 Fair CLR 73.9 60.1 62% 29.93 1013.0
12 06:52 S 6 9.00 Fair CLR 66.9 55 66.9 64 66% 29.93 1013.2
12 05:52 S 5 9.00 Fair CLR 64 54 70% 29.93 1013.0
12 04:52 S 6 10.00 Fair CLR 64 53.1 68% 29.92 1012.6
12 03:52 S 8 10.00 Fair CLR 64.9 52 63% 29.91 1012.2
12 02:52 S 7 10.00 Fair CLR 64.9 51.1 61% 29.9 1012.1
12 01:52 S 6 10.00 Fair CLR 64.9 48.9 56% 29.91 1012.3
12 00:52 S 6 10.00 Fair CLR 64.9 48 73.9 64.9 54% 29.91 1012.4
11 23:52 S 5 10.00 Fair CLR 66 46.9 50% 29.91 1012.6
11 22:52 S 6 10.00 Fair CLR 66 46.9 50% 29.91 1012.6
11 21:52 S 5 10.00 Fair CLR 66.9 48 51% 29.92 1012.8
11 20:52 S 5 10.00 Mostly Cloudy BKN080 71.1 46.9 42% 29.91 1012.4
11 19:52 S 5 10.00 Overcast OVC085 73 46 38% 29.92 1013.0
11 18:52 SW 6 10.00 Overcast OVC085 73.9 45 80.1 73.9 36% 29.91 1012.6
11 17:52 S 7 10.00 Mostly Cloudy BKN110 77 42.1 29% 78 29.91 1012.6
11 16:52 SW 8 10.00 Fair CLR 77 43 30% 78 29.93 1013.3
11 15:52 SW 8 10.00 Fair CLR 77 39.9 26% 77 29.94 1013.5
11 14:52 SW 8 10.00 Fair CLR 79 42.1 27% 78 29.96 1014.3
11 13:52 SW 9 10.00 Fair CLR 77 44.1 31% 78 29.98 1015.0
11 12:52 SW 9 10.00 Fair CLR 75.9 44.1 75.9 53.1 32% 77 29.99 1015.3
11 11:52 S 6 10.00 Fair CLR 73 43 34% 30 1015.7
11 10:52 Calm 10.00 Fair CLR 71.1 44.1 38% 30.01 1016.1
11 09:52 S 7 10.00 Fair CLR 66.9 43 42% 30.02 1016.5
11 08:52 S 7 10.00 Fair CLR 63 42.1 47% 30.04 1017.1
11 07:52 S 3 10.00 Fair CLR 60.1 43 53% 30.05 1017.5
11 06:52 Calm 8.00 Fair CLR 53.1 46.9 53.1 45 80% 30.04 1017.1
11 05:52 W 6 8.00 Fair CLR 46 42.1 86% 44 30.04 1017.2
11 04:52 Calm 9.00 Fair CLR 46 43 89% 30.02 1016.6
11 03:52 Calm 9.00 Fair CLR 46.9 43 86% 30.01 1016.2
11 02:52 Calm 9.00 Fair CLR 48 43 83% 30.02 1016.5
11 01:52 Calm 10.00 Fair CLR 48.9 43 80% 30.01 1016.2
11 00:52 Calm 9.00 Fair CLR 50 44.1 71.1 48.9 80% 30.02 1016.5
10 23:52 Calm 10.00 Fair CLR 51.1 45 80% 30.01 1016.2
10 22:52 Calm 10.00 Fair CLR 53.1 44.1 72% 30 1015.8
10 21:52 E 3 10.00 Fair CLR 57 44.1 62% 29.98 1015.2
10 20:52 NE 6 10.00 Fair CLR 60.1 44.1 56% 29.97 1014.9
10 19:52 E 9 10.00 Fair CLR 66 45 47% 29.97 1014.6
10 18:52 N 9 10.00 Fair CLR 71.1 39.9 72 66.9 32% 29.96 1014.3
10 17:52 N 6 10.00 Fair CLR 72 41 33% 29.96 1014.2
10 16:52 N 9 10.00 Fair CLR 72 42.1 34% 29.96 1014.4
10 15:52 Vrbl 7 10.00 Fair CLR 72 43 35% 29.97 1014.7
10 14:52 N 8 10.00 Fair CLR 71.1 43 36% 29.98 1015.0
10 13:52 N 3 G 17 10.00 Fair CLR 69.1 43 39% 29.98 1015.1
10 12:52 N 6 G 21 10.00 Fair CLR 66.9 43 68 55.9 42% 29.99 1015.4
10 11:52 NE 10 G 18 10.00 Fair CLR 66 43 43% 30.01 1015.9
10 10:52 N 12 10.00 Fair CLR 64 45 50% 30.01 1016.1
10 09:52 NE 13 10.00 Fair CLR 61 44.1 54% 30 1015.8
10 08:52 N 12 10.00 Fair CLR 60.1 44.1 56% 30.01 1016.0
10 07:52 N 14 10.00 Partly Cloudy SCT038 57.9 44.1 60% 29.99 1015.3
10 06:52 N 15 10.00 Overcast OVC025 55.9 46 57.9 55 70% 29.98 1014.9
10 05:52 N 8 10.00 Overcast BKN014 OVC036 55 51.1 87% 29.97 1014.7
10 04:52 NE 5 7.00 Overcast SCT011 BKN016 OVC034 55 52 90% 29.96 1014.3
10 03:52 NE 7 10.00 Overcast BKN017 OVC024 57 51.1 81% 29.95 1013.8
10 02:52 NE 7 10.00 Overcast OVC041 57.9 51.1 78% 29.94 1013.7
10 01:52 NE 6 10.00 Overcast OVC047 57.9 52 81% 29.93 1013.3
10 00:52 E 5 10.00 Overcast BKN043 OVC050 57.9 52 73.9 55.9 81% 29.92 1013.0
09 23:52 Calm 10.00 Fair CLR 57 50 78% 29.91 1012.7
Date Time (cdt) Wind (mph) Vis. (mi.) Weather Sky Cond. Air Dwpt Max. Min. Relative Humidity Wind Chill (°F) Heat Index (°F) altimeter (in) sea level (mb) 1 hr 3 hr 6 hr
6 hour
Temperature (ºF) Pressure Precipitation (in)